Hourly Data Report for December 28, 2003

SHERBROOKE A
QUEBEC

45°26'00.000" N
71°41'00.000" W
241.40 m
7028124
71610
YSC

Download Data

Hourly Data (December 2003)
Hourly Data Report for December 28, 2003
TIME
LST
Temp Definition
°C
Dew Point Definition
°C
Rel Hum Definition
%
Precip. Amount Definition
mm

Wind Dir Definition
10's deg

Wind Spd Definition
km/h
Visibility Definition
km
Stn Press Definition
kPa
Hmdx Definition


Wind Chill Definition


Weather Definition


00:00 -17.8 -18.7 93   13 4 15.0 99.84   -21  
01:00 -17.5 -19.3 86   8 4 15.0 99.81   -21  
02:00 -18.4 -20.3 85     0 15.0 99.85      
03:00 -19.6 -21.4 86   19 4 15.0 99.88   -23  
04:00 -19.2 -21.6 81     0 15.0 99.86      
05:00 -19.3 -21.4 83   9 6 15.0 99.89   -24  
06:00 -16.9 -18.9 84   9 6 15.0 99.83   -21  
07:00 -20.2 -22.2 84     0 15.0 99.89      
08:00 -19.6 -21.2 87   11 7 24.1 99.91   -25 Mainly Clear
09:00 -14.5 -16.2 87   8 4 24.1 99.85   -17 Mainly Clear
10:00 -11.4 -12.6 91   19 4 24.1 99.87   -14 Mainly Clear
11:00 -8.3 -10.1 87     0 24.1 99.76     Mostly Cloudy
12:00 -7.1 -9.3 84     0 24.1 99.64     Mostly Cloudy
13:00 -4.7 -9.6 69     0 24.1 99.54     Mostly Cloudy
14:00 -3.6 -8.2 70   6 4 24.1 99.49   -5 Mostly Cloudy
15:00 -4.0 -7.6 76   8 6 24.1 99.44   -7 Mostly Cloudy
16:00 -5.4 -8.1 81   8 4 24.1 99.45   -7 Mostly Cloudy
17:00 -6.4 -8.9 82   7 4 24.1 99.43   -8 Mainly Clear
18:00 -6.9 -8.9 86   9 6 15.0 99.41   -10  
19:00 -7.7 -9.6 86   7 6 15.0 99.36   -11  
20:00 -9.4 -11.4 85   9 9 8.0 99.23   -14  
21:00 -12.9 -15.1 84   14 6 8.0 99.16   -17  
22:00 -11.9 -14.0 84     0 9.7 99.10      
23:00 -13.1 -15.0 86   12 6 15.0 99.09   -17  

Notes on Data Quality.

Legend

  • E = Estimated
  • M = Missing
  • NA = Not Available*
  • [empty] = Indicates an unobserved value
Date modified: